Track COSMOS 1158 now! 10-day predictions COSMOS 1158 is classified as:
1 11693U 80012C 24325.83936472 .00000013 00000-0 18772-3 0 9991 2 11693 74.0208 268.6149 0028216 293.3256 95.1248 12.52337494 46940